This is the latest recevied weather packets stored in our database for station/object W6TKD-13. If no packets are shown the sender has not sent any weather packets the latest 10 day(s).
| Time | Temp. | Humidity | Pressure | Rain* | Wind** | Luminosity | Snow |
|---|---|---|---|---|---|---|---|
| 1788202735 | 31.67° C | 22% | 1012.8 hPa | 0 mm | - | - | - |
| 1788202067 | 32.22° C | 22% | 1012.6 hPa | 0 mm | - | - | - |
| 1788201400 | 32.78° C | 22% | 1012.6 hPa | 0 mm | - | - | - |
| 1788200734 | 33.33° C | 21% | 1012.6 hPa | 0 mm | - | - | - |
| 1788200067 | 34.44° C | 21% | 1012.6 hPa | 0 mm | - | - | - |
| 1788198733 | 36.67° C | 20% | 1012.6 hPa | 0 mm | - | - | - |
| 1788198068 | 37.78° C | 20% | 1012.6 hPa | 0 mm | - | - | - |
| 1788197401 | 38.33° C | 20% | 1012.6 hPa | 0 mm | - | - | - |
| 1788196734 | 37.78° C | 21% | 1012.5 hPa | 0 mm | - | - | - |
| 1788196065 | 37.22° C | 23% | 1012.4 hPa | 0 mm | - | - | - |
| 1788195398 | 35.56° C | 25% | 1012.4 hPa | 0 mm | - | - | - |
| 1788194732 | 33.89° C | 27% | 1012.5 hPa | 0 mm | - | - | - |
| 1788194064 | 31.67° C | 30% | 1012.6 hPa | 0 mm | - | - | - |
| 1788193397 | 28.33° C | 34% | 1012.6 hPa | 0 mm | - | - | - |
| 1788192730 | 23.33° C | 38% | 1012.6 hPa | 0 mm | - | - | - |
| 1788192063 | 20.56° C | 39% | 1012.8 hPa | 0 mm | - | - | - |
| 1788191396 | 18.89° C | 40% | 1013 hPa | 0 mm | - | - | - |
| 1788190730 | 17.78° C | 41% | 1013.1 hPa | 0 mm | - | - | - |
| 1788190061 | 17.22° C | 41% | 1013.1 hPa | 0 mm | - | - | - |
| 1788189394 | 16.11° C | 42% | 1013.2 hPa | 0 mm | - | - | - |
| 1788188727 | 15.56° C | 43% | 1013 hPa | 0 mm | - | - | - |
| 1788188060 | 14.44° C | 43% | 1012.9 hPa | 0 mm | - | - | - |
| 1788187393 | 13.89° C | 43% | 1012.8 hPa | 0 mm | - | - | - |
| 1788186727 | 13.33° C | 43% | 1012.8 hPa | 0 mm | - | - | - |
| 1788186060 | 13.33° C | 42% | 1012.7 hPa | 0 mm | - | - | - |
* Rain since midnight (hover to see other rain measurements)
** Current wind speed in m/s (hover to see current wind gust speed)